FW8329 Weather Reports


time (UTC)temp
C
wind
direction
speed
KPH
gust
KPH
rain 1hr
cm
rain 24hr
cm
rain mn
cm
humidity
%
barometer
mb
20260508014534 12 208 0.0 6.4 0.00 0.00 0.00 53 1003.2
20260508013033 12 134 0.0 3.2 0.00 0.00 0.00 60 1003.0
20260508011540 12 214 0.0 3.2 0.00 0.00 0.00 59 1002.9
20260508010043 13 313 0.0 9.7 0.00 0.00 0.00 55 1003.0
20260508004531 15 247 0.0 9.7 0.00 0.00 0.00 47 1003.0
20260508003030 15 98 0.0 4.8 0.00 0.00 0.00 45 1003.0
20260508001530 14 233 0.0 4.8 0.00 0.00 0.00 50 1002.9
20260508000031 15 200 3.2 9.7 0.00 0.00 0.00 43 1002.8
20260507234528 14 167 3.2 11.3 0.00 0.00 0.00 47 1003.0
20260507233031 14 48 3.2 11.3 0.00 0.00 0.00 47 1002.7
20260507231530 14 83 1.6 6.4 0.00 0.00 0.00 48 1002.6
20260507230040 15 170 0.0 11.3 0.00 0.00 0.00 46 1002.5
20260507224530 15 65 0.0 14.5 0.00 0.00 0.00 45 1002.6
20260507223045 16 351 8.0 20.9 0.00 0.00 0.00 41 1002.4
20260507221523 16 191 9.7 17.7 0.00 0.00 0.00 40 1002.5
20260507220022 16 81 3.2 12.9 0.00 0.00 0.00 42 1002.6
20260507214517 15 139 9.7 20.9 0.00 0.00 0.00 43 1002.7
20260507213017 15 246 3.2 11.3 0.00 0.00 0.00 48 1003.0
20260507211515 13 145 1.6 16.1 0.00 0.00 0.00 50 1003.2
20260507210017 13 101 4.8 14.5 0.00 0.00 0.00 50 1003.4
20260507204513 13 192 6.4 11.3 0.00 0.00 0.00 47 1003.3
20260507203113 14 73 4.8 16.1 0.00 0.00 0.00 45 1003.1
20260507201512 15 198 3.2 19.3 0.00 0.00 0.00 44 1003.1
20260507200016 15 92 1.6 19.3 0.00 0.00 0.00 43 1003.1
20260507194509 15 77 3.2 14.5 0.00 0.00 0.00 40 1003.2
20260507193018 14 206 3.2 20.9 0.00 0.00 0.00 44 1003.3
20260507191505 14 236 3.2 8.0 0.00 0.00 0.00 48 1003.4
20260507190003 12 79 1.6 9.7 0.00 0.00 0.00 48 1003.6
20260507184558 12 103 3.2 11.3 0.00 0.00 0.00 52 1003.9
20260507183058 12 66 0.0 14.5 0.00 0.00 0.00 50 1004.2
20260507181605 12 250 1.6 6.4 0.00 0.00 0.00 47 1004.1
20260507180057 12 41 0.0 8.0 0.00 0.00 0.00 44 1004.3
20260507174602 12 142 4.8 14.5 0.00 0.00 0.00 45 1004.2
20260507173059 12 122 8.0 16.1 0.00 0.00 0.00 46 1004.4
20260507171603 12 211 3.2 9.7 0.00 0.00 0.00 47 1004.3
20260507170054 12 213 8.0 17.7 0.00 0.00 0.00 45 1004.4
20260507164553 12 200 8.0 19.3 0.00 0.00 0.00 44 1004.3
20260507163052 12 197 1.6 12.9 0.00 0.00 0.00 44 1004.5
20260507161559 12 182 4.8 17.7 0.00 0.00 0.00 47 1004.5
20260507160048 12 208 4.8 14.5 0.00 0.00 0.00 49 1004.5
20260507154547 12 158 3.2 11.3 0.00 0.00 0.00 49 1004.6
20260507153106 12 146 4.8 9.7 0.00 0.00 0.00 50 1004.6
20260507151542 11 162 1.6 6.4 0.00 0.00 0.00 53 1004.8
20260507150049 11 72 3.2 12.9 0.00 0.00 0.00 54 1004.8
20260507144541 11 185 4.8 16.1 0.00 0.00 0.00 56 1004.7
20260507143040 10 212 3.2 9.7 0.00 0.00 0.00 64 1004.7
20260507141539 7 205 0.0 1.6 0.00 0.00 0.00 72 1004.9
20260507140039 5 239 0.0 3.2 0.00 0.00 0.00 78 1005.0
20260507134538 4 2 0.0 1.6 0.00 0.00 0.00 80 1005.0
20260507133038 4 173 0.0 4.8 0.00 0.00 0.00 79 1004.8
20260507131537 3 274 4.8 9.7 0.00 0.00 0.00 84 1004.6
20260507130054 2 255 0.0 3.2 0.00 0.00 0.00 88 1004.7
20260507124534 1 271 0.0 1.6 0.00 0.00 0.00 86 1004.7
20260507123033 2 9 0.0 1.6 0.00 0.00 0.00 85 1004.6
20260507121527 3 28 0.0 1.6 0.00 0.00 0.00 84 1004.6
20260507120033 3 255 0.0 3.2 0.00 0.00 0.00 82 1004.3
20260507114524 4 223 0.0 6.4 0.00 0.00 0.00 82 1004.2
20260507113023 3 236 0.0 3.2 0.00 0.00 0.00 83 1004.1
20260507111519 3 251 0.0 1.6 0.00 0.00 0.00 80 1004.2
20260507110015 5 210 0.0 1.6 0.00 0.00 0.00 78 1004.4
20260507104509 6 210 0.0 1.6 0.00 0.00 0.00 75 1004.6
20260507103005 6 210 0.0 0.0 0.00 0.00 0.00 72 1004.7
20260507101504 8 210 0.0 0.0 0.00 0.00 0.00 68 1005.0
20260507100003 9 66 0.0 1.6 0.00 0.00 0.00 65 1005.2
20260507094501 10 79 3.2 16.1 0.00 0.00 0.00 62 1005.3
20260507093102 11 64 0.0 11.3 0.00 0.00 0.00 57 1005.3
20260507091600 11 207 4.8 14.5 0.00 0.00 0.00 57 1004.7
20260507090100 11 294 4.8 17.7 0.00 0.00 0.00 56 1004.7
20260507084601 11 231 4.8 16.1 0.00 0.00 0.00 55 1004.4
20260507083112 11 121 11.3 20.9 0.00 0.00 0.00 54 1004.6
20260507081601 10 229 6.4 16.1 0.00 0.00 0.00 56 1004.7
20260507080054 11 251 6.4 14.5 0.00 0.00 0.00 54 1005.0
20260507074558 11 210 6.4 17.7 0.00 0.00 0.00 54 1004.9
20260507073059 10 212 6.4 17.7 0.00 0.00 0.00 57 1004.9
20260507071549 9 250 0.0 8.0 0.00 0.00 0.00 60 1005.1
20260507070047 8 201 4.8 12.9 0.00 0.00 0.00 64 1005.1
20260507064544 7 266 0.0 8.0 0.00 0.00 0.00 67 1005.0
20260507063047 7 230 3.2 8.0 0.00 0.00 0.00 66 1005.1
20260507061537 8 248 0.0 6.4 0.00 0.00 0.00 63 1005.3
20260507060035 8 275 1.6 8.0 0.00 0.00 0.00 63 1005.4
20260507054539 8 249 0.0 4.8 0.00 0.00 0.00 63 1005.5
20260507053033 8 203 0.0 3.2 0.00 0.00 0.00 66 1005.6
20260507051534 8 219 0.0 1.6 0.00 0.00 0.00 63 1005.6
20260507050036 9 226 0.0 0.0 0.00 0.00 0.00 61 1005.6
20260507044537 9 226 0.0 1.6 0.00 0.00 0.00 60 1005.7
20260507043030 10 236 0.0 1.6 0.00 0.00 0.00 57 1005.7
20260507041536 11 219 0.0 1.6 0.00 0.00 0.00 56 1005.8
20260507040029 11 210 0.0 1.6 0.00 0.00 0.00 52 1005.7
20260507034528 12 242 1.6 12.9 0.00 0.00 0.00 48 1005.7
20260507033029 13 150 8.0 20.9 0.00 0.00 0.00 48 1006.2
20260507031528 13 152 6.4 16.1 0.00 0.00 0.00 49 1006.1
20260507030025 13 169 1.6 11.3 0.00 0.00 0.00 48 1006.1
20260507024524 13 233 4.8 9.7 0.00 0.00 0.00 48 1006.1
20260507023023 13 181 3.2 12.9 0.00 0.00 0.00 47 1006.2
20260507021523 13 152 4.8 16.1 0.00 0.00 0.00 46 1006.2
20260507020024 13 160 3.2 16.1 0.00 0.00 0.00 46 1006.3